When you browse on this site, cookies collect data to enhance your experience and personalize the content and advertising you see.
Visit our Privacy Policy to learn more. By continuing to use the site, you agree to this use of cookies and data.
  • En España
  • Lista de países
  • Para 7 días
  • Temperatura del agua
  • El tiempo en el mapa
  • Informadores
  • user-avatar
    Iniciar sesión

    Tiempo cada hora Gavriki

    Hoy, 21 Septiembre, Sábado

    Tiempo Temperatura Precipitaciones Viento Presión Humedad
    00:00 +1°C° 0 mm 2 mps 747 mmHg 95%
    01:00 +1°C° 0 mm 2 mps 747 mmHg 94%
    02:00 +1°C° 0 mm 2 mps 748 mmHg 94%
    03:00 -1°C° 0 mm 2 mps 747 mmHg 93%
    04:00 -1°C° 0 mm 2 mps 747 mmHg 93%
    05:00 -1°C° 0 mm 2 mps 747 mmHg 92%
    06:00 +1°C° 0 mm 2 mps 747 mmHg 88%
    07:00 +3°C° 0 mm 2 mps 747 mmHg 83%
    08:00 +3°C° 0 mm 3 mps 747 mmHg 78%
    09:00 +4°C° 0 mm 3 mps 747 mmHg 75%
    10:00 +6°C° 0 mm 4 mps 746 mmHg 72%
    11:00 +7°C° 0 mm 4 mps 746 mmHg 69%
    12:00 +7°C° 0.1 mm 5 mps 745 mmHg 71%
    13:00 +7°C° 0.1 mm 6 mps 745 mmHg 72%
    14:00 +7°C° 0.1 mm 6 mps 744 mmHg 74%
    15:00 +5°C° 0.7 mm 6 mps 743 mmHg 81%
    16:00 +5°C° 0.7 mm 6 mps 743 mmHg 88%
    17:00 +5°C° 0.7 mm 5 mps 742 mmHg 95%
    18:00 +5°C° 0.5 mm 5 mps 741 mmHg 96%
    19:00 +6°C° 0.5 mm 4 mps 740 mmHg 97%
    20:00 +6°C° 0.5 mm 4 mps 740 mmHg 97%
    21:00 +7°C° 0.4 mm 4 mps 739 mmHg 97%
    22:00 +8°C° 0.4 mm 4 mps 739 mmHg 97%
    23:00 +9°C° 0.4 mm 5 mps 738 mmHg 96%

    Mañana, 22 Septiembre, Domingo

    Tiempo Temperatura Precipitaciones Viento Presión Humedad
    00:00 +9°C° 0.5 mm 5 mps 738 mmHg 96%
    01:00 +9°C° 0.5 mm 5 mps 738 mmHg 95%
    02:00 +9°C° 0.5 mm 5 mps 738 mmHg 94%
    03:00 +9°C° 0.3 mm 5 mps 738 mmHg 94%
    04:00 +9°C° 0.3 mm 5 mps 738 mmHg 94%
    05:00 +8°C° 0.3 mm 5 mps 738 mmHg 94%
    06:00 +8°C° 0.4 mm 5 mps 738 mmHg 93%
    07:00 +8°C° 0.4 mm 5 mps 738 mmHg 93%
    08:00 +8°C° 0.4 mm 5 mps 738 mmHg 93%
    09:00 +9°C° 0.2 mm 6 mps 738 mmHg 86%
    10:00 +9°C° 0.2 mm 7 mps 739 mmHg 79%
    11:00 +10°C° 0.2 mm 8 mps 739 mmHg 73%
    12:00 +9°C° 0.1 mm 8 mps 739 mmHg 69%
    13:00 +9°C° 0.1 mm 7 mps 740 mmHg 66%
    14:00 +8°C° 0.1 mm 7 mps 740 mmHg 63%
    15:00 +8°C° 0 mm 6 mps 741 mmHg 65%
    16:00 +7°C° 0 mm 5 mps 742 mmHg 67%
    17:00 +6°C° 0 mm 5 mps 742 mmHg 68%
    18:00 +5°C° 0 mm 4 mps 743 mmHg 72%
    19:00 +4°C° 0 mm 4 mps 744 mmHg 76%
    20:00 +3°C° 0 mm 4 mps 745 mmHg 79%
    21:00 +1°C° 0 mm 4 mps 745 mmHg 82%
    22:00 +2°C° 0 mm 3 mps 745 mmHg 85%
    23:00 +1°C° 0 mm 3 mps 746 mmHg 87%

    Pasado mañana, 23 Septiembre, Lunes

    Tiempo Temperatura Precipitaciones Viento Presión Humedad
    00:00 +1°C° 0 mm 3 mps 746 mmHg 89%
    01:00 0°C° 0 mm 3 mps 747 mmHg 91%
    02:00 0°C° 0 mm 3 mps 747 mmHg 93%
    03:00 -1°C° 0 mm 3 mps 748 mmHg 94%
    04:00 -1°C° 0 mm 3 mps 748 mmHg 94%
    05:00 -1°C° 0 mm 2 mps 748 mmHg 95%
    06:00 0°C° 0 mm 3 mps 749 mmHg 90%
    07:00 +1°C° 0 mm 3 mps 749 mmHg 84%
    08:00 +2°C° 0 mm 3 mps 749 mmHg 79%
    09:00 +3°C° 0 mm 3 mps 749 mmHg 72%
    10:00 +5°C° 0 mm 3 mps 749 mmHg 66%
    11:00 +7°C° 0 mm 3 mps 749 mmHg 59%
    12:00 +8°C° 0 mm 3 mps 749 mmHg 58%
    13:00 +8°C° 0 mm 3 mps 749 mmHg 56%
    14:00 +8°C° 0 mm 3 mps 749 mmHg 55%
    15:00 +8°C° 0 mm 3 mps 749 mmHg 59%
    16:00 +7°C° 0 mm 2 mps 749 mmHg 63%
    17:00 +6°C° 0 mm 2 mps 748 mmHg 67%
    18:00 +5°C° 0 mm 2 mps 749 mmHg 71%
    19:00 +5°C° 0 mm 1 mps 749 mmHg 76%
    20:00 +3°C° 0 mm 1 mps 749 mmHg 80%
    21:00 +3°C° 0 mm 1 mps 749 mmHg 82%
    22:00 +3°C° 0 mm 1 mps 749 mmHg 84%
    23:00 +2°C° 0 mm 1 mps 749 mmHg 86%

    24 Septiembre, Martes

    Tiempo Temperatura Precipitaciones Viento Presión Humedad
    00:00 +2°C° 0 mm 1 mps 749 mmHg 88%
    01:00 +2°C° 0 mm 1 mps 749 mmHg 90%
    02:00 +1°C° 0 mm 1 mps 749 mmHg 91%
    03:00 +1°C° 0 mm 1 mps 749 mmHg 91%
    04:00 +1°C° 0 mm 1 mps 749 mmHg 92%
    05:00 +1°C° 0 mm 1 mps 749 mmHg 92%
    06:00 +2°C° 0 mm 1 mps 749 mmHg 87%
    07:00 +4°C° 0 mm 1 mps 749 mmHg 82%
    08:00 +4°C° 0 mm 0 mps 749 mmHg 76%
    09:00 +6°C° 0 mm 1 mps 749 mmHg 70%
    10:00 +7°C° 0 mm 1 mps 749 mmHg 63%
    11:00 +8°C° 0 mm 2 mps 749 mmHg 57%
    12:00 +8°C° 0 mm 2 mps 749 mmHg 56%
    13:00 +9°C° 0 mm 1 mps 748 mmHg 56%
    14:00 +9°C° 0 mm 1 mps 748 mmHg 56%
    15:00 +8°C° 0 mm 1 mps 748 mmHg 59%
    16:00 +8°C° 0 mm 1 mps 748 mmHg 63%
    17:00 +7°C° 0 mm 1 mps 747 mmHg 67%
    18:00 +7°C° 0 mm 1 mps 747 mmHg 68%
    19:00 +6°C° 0 mm 1 mps 747 mmHg 69%
    20:00 +4°C° 0 mm 0 mps 747 mmHg 69%
    21:00 +4°C° 0 mm 0 mps 747 mmHg 72%
    22:00 +3°C° 0 mm 0 mps 747 mmHg 74%
    23:00 +2°C° 0 mm 0 mps 747 mmHg 76%

    25 Septiembre, Miércoles

    Tiempo Temperatura Precipitaciones Viento Presión Humedad
    00:00 +2°C° 0 mm 0 mps 747 mmHg 78%
    01:00 +2°C° 0 mm 0 mps 747 mmHg 80%
    02:00 +2°C° 0 mm 1 mps 747 mmHg 81%
    03:00 +2°C° 0 mm 1 mps 747 mmHg 83%
    04:00 +1°C° 0 mm 1 mps 747 mmHg 85%
    05:00 +1°C° 0 mm 1 mps 747 mmHg 87%
    06:00 +2°C° 0 mm 1 mps 747 mmHg 82%
    07:00 +4°C° 0 mm 1 mps 747 mmHg 77%
    08:00 +5°C° 0 mm 1 mps 747 mmHg 72%
    09:00 +6°C° 0 mm 1 mps 747 mmHg 66%
    10:00 +8°C° 0 mm 1 mps 748 mmHg 60%
    11:00 +8°C° 0 mm 2 mps 748 mmHg 55%
    12:00 +8°C° 0 mm 2 mps 747 mmHg 54%
    13:00 +9°C° 0 mm 2 mps 747 mmHg 53%
    14:00 +9°C° 0 mm 2 mps 747 mmHg 53%
    15:00 +8°C° 0 mm 2 mps 747 mmHg 58%
    16:00 +7°C° 0 mm 2 mps 747 mmHg 63%
    17:00 +7°C° 0 mm 2 mps 746 mmHg 68%
    18:00 +6°C° 0 mm 2 mps 746 mmHg 70%
    19:00 +4°C° 0 mm 2 mps 746 mmHg 73%
    20:00 +3°C° 0 mm 2 mps 746 mmHg 75%
    21:00 +3°C° 0 mm 2 mps 746 mmHg 75%
    22:00 +3°C° 0 mm 2 mps 746 mmHg 76%
    23:00 +3°C° 0 mm 2 mps 746 mmHg 76%

    26 Septiembre, Jueves

    Tiempo Temperatura Precipitaciones Viento Presión Humedad
    00:00 +3°C° 0 mm 2 mps 746 mmHg 77%
    01:00 +2°C° 0 mm 3 mps 746 mmHg 77%
    02:00 +2°C° 0 mm 3 mps 746 mmHg 78%
    03:00 +2°C° 0 mm 3 mps 746 mmHg 77%
    04:00 +2°C° 0 mm 3 mps 746 mmHg 77%
    05:00 +2°C° 0 mm 3 mps 745 mmHg 76%
    06:00 +3°C° 0 mm 3 mps 745 mmHg 75%
    07:00 +3°C° 0 mm 4 mps 745 mmHg 73%
    08:00 +4°C° 0 mm 4 mps 745 mmHg 72%
    09:00 +5°C° 0 mm 5 mps 745 mmHg 69%
    10:00 +6°C° 0 mm 5 mps 745 mmHg 66%
    11:00 +7°C° 0 mm 5 mps 745 mmHg 63%
    12:00 +7°C° 0.1 mm 5 mps 745 mmHg 66%
    13:00 +7°C° 0.1 mm 5 mps 744 mmHg 69%
    14:00 +7°C° 0.1 mm 5 mps 744 mmHg 72%
    15:00 +6°C° 0.1 mm 5 mps 744 mmHg 76%
    16:00 +5°C° 0.1 mm 5 mps 744 mmHg 80%
    17:00 +5°C° 0.1 mm 5 mps 743 mmHg 84%
    18:00 +5°C° 0 mm 5 mps 743 mmHg 85%
    19:00 +5°C° 0 mm 5 mps 743 mmHg 85%
    20:00 +3°C° 0 mm 5 mps 743 mmHg 85%
    21:00 +3°C° 0 mm 5 mps 743 mmHg 85%
    22:00 +3°C° 0 mm 5 mps 743 mmHg 84%
    23:00 +3°C° 0 mm 5 mps 743 mmHg 84%
    Mostrar más